METEOR 2-11 DEB, 42454

Orbit data source: Space-Track

METEOR 2-11 DEB, 42454 is space debris in LEO originally from a launch on Thu, 05 Jul 1984 UTC launched from the Plesetsk Missile And Space Complex (PKMTR). Debris objects in space refer to the collection of defunct objects orbiting the Earth. Examples of debris include non-operational satellites, rocket bodies, and fragments generated from explosions, collisions, or faulty payload assembly.

Loading next visibility...
Identifier
42454, 1984-072Q
Orbit
LEO
Country
Flag of CISCIS
Related business
Manufacturer
Unknown
Mission
Spacecraft
Bus & Motor
Unknown
Mass
Unknown
Launch date (UTC)
1984-07-05 (42 years ago)
Launch vehicle
Unknown
Launch site
Plesetsk Missile And Space Complex (PKMTR)
Object type
Payload
Rocket body
Debris
Shape & HBR
Unknown shape, 0.1 m
Radar Cross Section
Small (<0.1 m²)

Expand to show TLE details & history
Last TLE update: 1 day ago

TLE from 1 day ago
0 METEOR 2-11 DEB
1 42454U 84072Q   26208.62532960  .00002934  00000-0  20238-2 0  9996
2 42454  82.5174 329.5148 0020183 198.2677 161.7769 13.98825339568326
Epoch: 2026-07-27T15:00Z
TLE epoch observation values (Epoch: 2026-07-27T15:00:28.477Z)
Latitude
Longitude
159.08993°
Altitude
914.742 km
Speed
7.387 km/s
True Right ascension
21h 58m 03s
True Declination
0° 00' 00"
Sunlit
Object was in full shadow at epoch
Visualization orbit readout
Latitude
Unknown
Longitude
Unknown
Altitude
Unknown
Speed
Unknown
Apparent Right ascension
Unknown
Apparent Declination
Unknown
Sunlit
N/A
Visualization observer readout
Local Sidereal Time
05:28:54
Azimuth
Unknown
Elevation
Unknown
Doppler factor
Unknown
Orbital elements
Apogee altitude
909.678 km
Perigee altitude
880.319 km
Semi-major axis
7,273.135 km
Eccentricity
0.00202
Inclination
82.5174°
RAAN
329.5148°
Arg. of periapsis
198.2677°
True anomaly
161.84905°
Mean anomaly
161.7769°
Eccentric anomaly
161.81299°
Mean motion
3.49913 °/min
Orbital period
102.88 mins
BSTAR
0.0020238
Loading maneuver chart data...
Computing Atmospheric mass density...
Loading historical data...
Loading historical data...
Loading historical data...
Loading historical data...
Loading historical data...
Loading historical data...
Loading historical data...

Documentation

Showing up to 5 results
|